Location: Six Mile Lake
(44.9000°N, 79.7170°W)
Time: 08:29:42
(UTC-04:00)

XW-2A - Visible Passes

Search period start: 28 June 2022 00:00
Search period end: 08 July 2022 00:00
Orbit: 398 x 413 km, 97.2° (Epoch: 28 June)

Date Brightness Start Highest point End Pass type
(mag) Time Alt. Az. Time Alt. Az. Time Alt. Az.
28 Jun ? 22:38:43 10° SSW 22:41:32 36° W 22:44:27 10° NNW visible
29 Jun ? 21:50:01 10° SE 21:52:55 39° ENE 21:55:51 10° N visible
29 Jun ? 23:24:47 10° W 23:25:01 10° W 23:25:15 10° W visible
30 Jun ? 22:33:14 11° S 22:36:04 44° W 22:39:04 10° NNW visible
01 Jul ? 21:44:36 10° SE 21:47:25 33° ENE 21:50:15 10° N visible
01 Jul ? 23:18:11 10° WSW 23:19:27 12° W 23:20:42 10° WNW visible
02 Jul ? 22:27:37 11° S 22:30:28 54° W 22:33:31 10° NNW visible
03 Jul ? 23:11:59 10° SW 23:13:43 14° W 23:15:29 10° WNW visible
04 Jul ? 22:21:51 11° S 22:24:43 67° W 22:27:49 10° NNW visible
05 Jul ? 23:05:47 10° SW 23:07:53 17° W 23:09:59 10° NW visible
06 Jul ? 22:15:58 12° S 22:18:50 84° WSW 22:21:57 10° NNW visible
07 Jul ? 22:59:32 10° SW 23:01:54 20° W 23:04:16 10° NW visible
